Location: Invercargill
(46.4000°S, 168.3500°E)
Time: 12:34:47
(UTC+12:00)

OTV 5 (USA 277) - Visible Passes

Search period start: 16 June 2019 00:00
Search period end: 26 June 2019 00:00
Orbit: 310 x 325 km, 54.5° (Epoch: 08 May)

Date Brightness Start Highest point End Pass type
(mag) Time Alt. Az. Time Alt. Az. Time Alt. Az.
16 Jun ? 18:40:41 10° WSW 18:43:26 64° NW 18:44:41 28° NE visible
17 Jun ? 18:55:42 10° WSW 18:58:03 25° NW 19:00:05 12° N visible
18 Jun ? 19:11:54 10° WNW 19:12:32 11° NW 19:13:10 10° NW visible
19 Jun ? 17:50:42 10° WSW 17:53:18 38° NW 17:55:55 10° NNE visible
20 Jun ? 18:06:02 10° W 18:07:52 16° NW 18:09:41 10° N visible
